TITAN 3C TRANSTAGE R/B, 3292

Orbit data source: Space-Track

TITAN 3C TRANSTAGE R/B, 3292 is space debris in GEO originally from a launch on Thu, 13 Jun 1968 UTC launched from the Air Force Eastern Test Range (AFETR). Debris objects in space refer to the collection of defunct objects orbiting the Earth. Examples of debris include non-operational satellites, rocket bodies, and fragments generated from explosions, collisions, or faulty payload assembly.

Not visible in the next 10 days
Identifier
3292, 1968-050J
Orbit
GEO
Last TLE update
1 day ago
Origin
Manufacturer
Martin Marietta
Mission
Spacecraft
Bus & Motor
TRANSTAGE, Unknown motor
Mass
~1,950 kg wet, ~1,950 kg dry
Launch date (UTC)
1968-06-13 (57 years ago)
Launch vehicle
Unknown
Launch site
Air Force Eastern Test Range (AFETR)
Object type
Payload
Rocket body
Debris
Shape & HBR
Cyl + 2 Nozzle, 4.6 m
Radar Cross Section
14.974 m², Large (>1 m²)

Expand to show TLE details & history

TLE from 1 day ago
0 TITAN 3C TRANSTAGE R/B
1 03292U 68050J   25128.26294765 -.00000141  00000-0  00000-0 0  9991
2 03292   6.7741  56.4674 0174324 356.6034 219.2883  1.05594107 42228
Epoch: 2025-05-08T06:18Z
Definitive object data (Epoch: 2025-05-08T06:18:38.676Z)
Latitude
-3.85167°
Longitude
-50.06983°
Altitude
34,913.747 km
Speed
3.086 km/s
True Right ascension
18h 03m 42s
True Declination
-3° 50' 52"
Sunlit
Object was in daylight at TLE epoch
Visualization TLE readout
Latitude
-6.18051°
Longitude
-18.83507°
Altitude
34,599.293 km
Speed
3.11 km/s
Apparent Right ascension
20h 35m 55s
Apparent Declination
-12° 03' 30"
Sunlit
Object is in daylight
Visualization observer readout
Local Sidereal Time
15:11:51
Azimuth
104.964° ESE
Elevation
-0.972°
Doppler factor
1
Orbital elements
Apogee altitude
35,068.806 km
Perigee altitude
33,648.526 km
Semi-major axis
40,736.803 km
Eccentricity
0.0174324
Inclination
6.7741°
RAAN
56.4674°
Arg. of periapsis
356.6034°
True anomaly
218.04446°
Mean anomaly
219.2883°
Eccentric anomaly
218.66429°
Mean motion
0.26397 °/min
BSTAR
Unknown
Orbital period
1363.77 mins
Loading historical data...
3292 neighbors
Loading maneuver chart data...
Loading SW <> Apogee altitude chart data...
Loading historical data...
Loading historical data...
Loading historical data...
Loading historical data...
Loading historical data...
Loading historical data...
Loading historical data...

TITAN 3C TRANSTAGE R/B Visibility forecast

Observer location: undefined°, undefined°

TITAN 3C TRANSTAGE R/B is not visible in the next 10 days
Span
Click to sort rows by Start time (UTC) header in descending order
Start Az.
Max El. time (UTC)
Max El. Az.
Max El.
End time (UTC)
End Az.
|